TimeIST,TemperatureF,Dew PointF,Humidity,Sea Level PressureIn,VisibilityMPH,Wind Direction,Wind SpeedMPH,Gust SpeedMPH,PrecipitationIn,Events,Conditions,WindDirDegrees,DateUTC
1:00 AM,41,39,92,30.07,,NE,8.9,,,,,50,2012-10-09 00:00:00
7:00 AM,40,38,88,30.05,16,NE,6.7,,,,Clear,40,2012-10-09 06:00:00
7:00 AM,41.0,37.4,87,30.01,-9999.0,NE,5.8,-,N/A,,Clear,40,2012-10-09 06:00:00
7:30 AM,39.2,37.4,93,30.01,-9999.0,NNE,8.1,-,N/A,,Clear,30,2012-10-09 06:30:00
8:00 AM,39.2,37.4,93,30.04,-9999.0,NNE,8.1,-,N/A,,Clear,30,2012-10-09 07:00:00
8:30 AM,41.0,37.4,87,30.04,-9999.0,NE,6.9,-,N/A,,Clear,40,2012-10-09 07:30:00
9:00 AM,41.0,39.2,93,30.04,6.2,NE,6.9,-,N/A,,Mostly Cloudy,40,2012-10-09 08:00:00
9:30 AM,41.0,39.2,93,30.04,6.2,NE,8.1,-,N/A,,Mostly Cloudy,40,2012-10-09 08:30:00
10:00 AM,42.8,39.2,87,30.04,6.2,NE,6.9,-,N/A,,Mostly Cloudy,40,2012-10-09 09:00:00
10:30 AM,42.8,39.2,87,30.04,6.2,NNE,4.6,-,N/A,,Mostly Cloudy,30,2012-10-09 09:30:00
11:00 AM,44.6,41.0,87,30.04,6.2,ENE,5.8,-,N/A,,Mostly Cloudy,60,2012-10-09 10:00:00
11:30 AM,46.4,42.8,87,30.04,6.2,ENE,6.9,-,N/A,,Mostly Cloudy,70,2012-10-09 10:30:00
12:00 PM,48.2,42.8,82,30.04,6.2,East,6.9,-,N/A,,Mostly Cloudy,90,2012-10-09 11:00:00
12:30 PM,50.0,44.6,82,30.04,6.2,ESE,8.1,-,N/A,,Mostly Cloudy,110,2012-10-09 11:30:00
1:00 PM,51.8,42.8,71,30.04,6.2,East,8.1,-,N/A,,Mostly Cloudy,90,2012-10-09 12:00:00
1:30 PM,51.8,42.8,71,30.04,6.2,East,9.2,-,N/A,,Mostly Cloudy,100,2012-10-09 12:30:00
2:00 PM,50.0,44.6,82,30.01,6.2,East,6.9,-,N/A,,Scattered Clouds,80,2012-10-09 13:00:00
2:30 PM,51.8,44.6,76,30.01,6.2,East,5.8,-,N/A,,Scattered Clouds,80,2012-10-09 13:30:00
3:00 PM,51.8,44.6,76,30.01,6.2,East,6.9,-,N/A,,Mostly Cloudy,80,2012-10-09 14:00:00
3:30 PM,51.8,46.4,82,30.01,6.2,East,9.2,-,N/A,,Scattered Clouds,90,2012-10-09 14:30:00
4:00 PM,53.6,44.6,72,29.98,6.2,ESE,8.1,-,N/A,,Scattered Clouds,120,2012-10-09 15:00:00
4:30 PM,53.6,44.6,72,30.01,6.2,ESE,4.6,-,N/A,,Scattered Clouds,110,2012-10-09 15:30:00
5:00 PM,51.8,44.6,76,30.01,6.2,East,5.8,-,N/A,,Partly Cloudy,80,2012-10-09 16:00:00
5:30 PM,51.8,44.6,76,30.01,6.2,East,3.5,-,N/A,,Partly Cloudy,90,2012-10-09 16:30:00
6:00 PM,51.8,44.6,76,30.01,6.2,ESE,4.6,-,N/A,,Partly Cloudy,110,2012-10-09 17:00:00
7:00 PM,47,44,86,30.02,16,East,4.5,,,,Clear,90,2012-10-09 18:00:00